Вернуться в каталог

STARLINK-30859

АктивенСвязьVLEO
NORAD 58371·PAYLOAD·🇺🇸 United States

Запущен Nov 18, 2023 с Cape Canaveral Space Force Station

Loading…

Ближайшие Пролёты (ближайшие 24 часа)

TLE

СвежийSource: CelesTrak SupGP

Эпоха: Sep 15, 2026, 01:41 UTC

1 58371C 23177W   26258.07062500  .00006516  00000+0  23593-3 0  2587
2 58371  43.0026   1.4130 0001487 269.4455 193.3093 15.27584872    13

Отслеживайте STARLINK-30859 в реальном времени с AllMySat

Download on the App Store